This is the latest recevied weather packets stored in our database for station/object DC4AT. If no packets are shown the sender has not sent any weather packets the latest 10 day(s).
| Time | Temp. | Humidity | Pressure | Rain* | Wind** | Luminosity | Snow |
|---|---|---|---|---|---|---|---|
| 1787600866 | 15.56° C | 70% | 1019.5 hPa | 0 mm | - | 0 W/m² | - |
| 1787600266 | 15.56° C | 69% | 1019.5 hPa | 0 mm | - | 0 W/m² | - |
| 1787599666 | 16.11° C | 68% | 1019.5 hPa | 0 mm | - | 0 W/m² | - |
| 1787599066 | 16.11° C | 68% | 1019.5 hPa | 0 mm | - | 0 W/m² | - |
| 1787598466 | 16.11° C | 67% | 1019.4 hPa | 0 mm | - | 0 W/m² | - |
| 1787597866 | 16.67° C | 66% | 1019.4 hPa | 0 mm | - | 0 W/m² | - |
| 1787597266 | 16.67° C | 65% | 1019.4 hPa | 0 mm | - | 0 W/m² | - |
| 1787596666 | 16.67° C | 65% | 1019.3 hPa | 0 mm | - | 0 W/m² | - |
| 1787596066 | 17.22° C | 64% | 1019.3 hPa | 0 mm | - | 7 W/m² | - |
| 1787595466 | 18.33° C | 63% | 1019.4 hPa | 0 mm | - | 11 W/m² | - |
| 1787594866 | 18.89° C | 60% | 1019.4 hPa | 0 mm | - | 23 W/m² | - |
| 1787594266 | 20° C | 59% | 1019.5 hPa | 0 mm | - | 39 W/m² | - |
| 1787593666 | 20° C | 59% | 1019.4 hPa | 0 mm | - | 60 W/m² | - |
| 1787593066 | 20° C | 59% | 1019.4 hPa | 0 mm | - | 84 W/m² | - |
| 1787592466 | 20° C | 59% | 1019.5 hPa | 0 mm | - | 83 W/m² | - |
| 1787591866 | 20° C | 60% | 1019.5 hPa | 0 mm | - | 113 W/m² | - |
| 1787591266 | 20° C | 59% | 1019.6 hPa | 0 mm | - | 88 W/m² | - |
| 1787590666 | 20° C | 59% | 1019.7 hPa | 0 mm | - | 102 W/m² | - |
| 1787590066 | 20° C | 56% | 1019.8 hPa | 0 mm | - | 104 W/m² | - |
| 1787589466 | 20° C | 56% | 1019.8 hPa | 0 mm | - | 105 W/m² | - |
| 1787588866 | 20° C | 55% | 1019.9 hPa | 0 mm | - | 123 W/m² | - |
| 1787588266 | 20° C | 55% | 1020 hPa | 0 mm | - | 204 W/m² | - |
| 1787587666 | 20.56° C | 54% | 1020.2 hPa | 0 mm | - | 251 W/m² | - |
| 1787587067 | 20.56° C | 54% | 1020.4 hPa | 0 mm | - | 329 W/m² | - |
| 1787586467 | 20.56° C | 52% | 1020.5 hPa | 0 mm | - | 97 W/m² | - |
* Rain latest hour (hover to see other rain measurements)
** Current wind speed in m/s (hover to see current wind gust speed)